Showing default

NIMBUS 4, 4362

Orbit data source: Space-Track

NIMBUS 4, 4362 is a payload satellite owned by GSFC (US) in SSO that was launched on Wed, 08 Apr 1970 UTC via a THORAD SLV-2G AGENA D launch vehicle from the Air Force Western Test Range (AFWTR). Payload-class satellites include a variety of spacecraft equipped with specific instruments for various scientific and technological missions. These include communications satellites like Starlink; space stations such as the ISS; scientific satellites like the Hubble; Earth observation satellites from companies like Planet Labs, Umbra, and HawkEye 360; GPS; miniature CubeSats for education and research; and military/defense satellites.

Loading next visibility...
Identifier
4362, 1970-025A
Orbit
SSO
Country
Flag of USUS
Related business
Manufacturer
GE/MSVD
Mission
Non-operational spacecraft
Bus & Motor
NIMBUS, Unknown motor
Mass
619 kg wet, 619 kg dry
Launch date (UTC)
1970-04-08 (56 years ago)
Launch vehicle
THORAD SLV-2G AGENA D
Launch site
Air Force Western Test Range (AFWTR)
Object type
Payload
Rocket body
Debris
Shape & HBR
Unknown
Radar Cross Section
Large (>1 m²)

Expand to show TLE details & history
Last TLE update: 5 hours ago

TLE from 5 hours ago
0 NIMBUS 4
1  4362U 70025A   26123.54497955 -.00000004  00000-0  69543-4 0  9997
2  4362  99.9619  45.0723 0008200 104.4684  68.9688 13.44753251750842
Epoch: 2026-05-03T13:04Z
TLE epoch observation values (Epoch: 2026-05-03T13:04:46.233Z)
Latitude
6.30322°
Longitude
168.53863°
Altitude
1,091.604 km
Speed
7.308 km/s
True Right ascension
15h 04m 42s
True Declination
6° 16' 03"
Sunlit
Object was in full shadow at epoch
Visualization orbit readout
Latitude
Unknown
Longitude
Unknown
Altitude
Unknown
Speed
Unknown
Apparent Right ascension
Unknown
Apparent Declination
Unknown
Sunlit
N/A
Visualization observer readout
Local Sidereal Time
01:29:04
Azimuth
Unknown
Elevation
Unknown
Doppler factor
Unknown
Orbital elements
Apogee altitude
1,095.07 km
Perigee altitude
1,082.824 km
Semi-major axis
7,467.084 km
Eccentricity
0.00082
Inclination
99.9619°
RAAN
45.0723°
Arg. of periapsis
104.4684°
True anomaly
69.05654°
Mean anomaly
68.9688°
Eccentric anomaly
69.01267°
Mean motion
3.36369 °/min
Orbital period
107.03 mins
BSTAR
0.000069543

Documentation

Showing up to 5 results
|